EW5697 Weather Reports


Display with metric or nautical units.
time (UTC)temp
F
wind
direction
speed
MPH
gust
MPH
rain 1hr
in
rain 24hr
in
rain mn
in
humidity
%
barometer
mb
20260504081556 51 216 0.0 0.0 0.00 0.02 0.01 87 1013.9
20260504080113 52 218 0.0 0.0 0.01 0.02 0.01 87 1013.8
20260504044540 52 122 0.0 14.0 0.00 0.01 0.01 80 1014.1
20260504043038 52 164 0.0 9.0 0.00 0.01 0.01 80 1014.4
20260504041536 52 128 0.0 4.0 0.00 0.01 0.01 79 1014.4
20260504040058 52 137 0.0 1.0 0.00 0.01 0.01 79 1014.2
20260504034534 52 160 0.0 8.0 0.00 0.01 0.01 79 1013.7
20260504033035 52 168 0.0 9.0 0.00 0.01 0.01 79 1013.3
20260504031536 53 168 0.0 6.0 0.00 0.01 0.01 78 1012.8
20260504030032 54 147 0.0 8.0 0.00 0.01 0.01 77 1012.6
20260504024531 56 157 0.0 4.0 0.00 0.01 0.01 74 1012.5
20260504023031 59 137 0.0 13.0 0.00 0.01 0.01 70 1012.1
20260504021531 62 170 0.0 1.0 0.00 0.01 0.01 64 1011.6
20260504020031 64 80 0.0 0.0 0.00 0.01 0.01 61 1011.5
20260504014528 64 83 0.0 0.0 0.00 0.01 0.01 59 1011.5
20260504013027 64 345 0.0 0.0 0.00 0.01 0.01 63 1011.4
20260504011527 63 343 0.0 0.0 0.00 0.01 0.01 67 1011.6
20260504010029 61 343 0.0 0.0 0.01 0.01 0.01 66 1011.8
20260504004539 62 343 0.0 0.0 0.01 0.01 0.01 67 1011.9
20260504003025 63 347 0.0 0.0 0.01 0.01 0.01 63 1011.9
20260504001525 65 52 0.0 0.0 0.01 0.01 0.01 56 1012.4
20260504000024 67 113 0.0 0.0 0.00 0.00 0.00 44 1012.4
20260503234523 70 347 0.0 0.0 0.00 0.00 0.00 37 1012.1
20260503233023 72 137 0.0 0.0 0.00 0.00 0.00 33 1011.7
20260503231522 72 184 0.0 2.0 0.00 0.00 0.00 35 1011.5
20260503230022 73 202 0.0 1.0 0.00 0.00 0.00 33 1011.5
20260503224520 74 314 0.0 1.0 0.00 0.00 0.00 29 1011.7
20260503223016 73 323 0.0 0.0 0.00 0.00 0.00 33 1011.8
20260503221513 70 309 0.0 0.0 0.00 0.00 0.00 43 1011.9
20260503220011 70 291 0.0 0.0 0.00 0.00 0.00 39 1012.3
20260503214509 69 299 0.0 0.0 0.00 0.00 0.00 38 1012.5
20260503213012 69 58 0.0 0.0 0.00 0.00 0.00 37 1012.8
20260503211508 71 29 0.0 1.0 0.00 0.00 0.00 36 1013.1
20260503210008 72 349 0.0 0.0 0.00 0.00 0.00 34 1012.7
20260503204507 72 278 0.0 0.0 0.00 0.00 0.00 32 1012.7
20260503203012 72 259 0.0 0.0 0.00 0.00 0.00 31 1012.6
20260503201502 70 290 0.0 0.0 0.00 0.00 0.00 40 1012.7
20260503200101 68 292 0.0 0.0 0.00 0.00 0.00 41 1012.9
20260503194553 66 291 0.0 0.0 0.00 0.00 0.00 46 1013.0
20260503193054 66 322 0.0 0.0 0.00 0.00 0.00 47 1013.7
20260503191549 65 322 0.0 0.0 0.00 0.00 0.00 48 1014.0
20260503190047 65 295 0.0 0.0 0.00 0.00 0.00 49 1014.1
20260503184546 65 304 0.0 0.0 0.00 0.00 0.00 49 1014.1
20260503183105 65 324 0.0 0.0 0.00 0.00 0.00 50 1014.0
20260503181602 65 328 0.0 0.0 0.00 0.00 0.00 51 1014.1
20260503180041 64 316 0.0 0.0 0.00 0.00 0.00 53 1014.0
20260503174538 63 317 0.0 0.0 0.00 0.00 0.00 52 1014.1
20260503173036 63 43 0.0 0.0 0.00 0.00 0.00 55 1013.9
20260503171533 62 8 0.0 0.0 0.00 0.00 0.00 56 1014.0